Texas Shootout - 2ND RACE

Station: HEDLEY - A Race

Distance: 209 Miles    

Release: 13-Jan-2018 08:30

Weather Release: MOSTLY SUNNY    Arrival: CLEAR

Wind at Release: CALM     Wind at Arrival: NNE 10-15

Temp at Release: 21°    Temp at Arrival: 40°

Lofts: 174

Birds: 719

Clocked: 681

HAULER SAID THEY WERE GONE OUT OF SITE GOOD LUCK
Drops Pos Breeder Pigeon Name Color Sex Ent Arrival Speed To Win Eligible
301 Floating Feather Loft - TX 1318-AU17-CVL BB C 3 13:25:02.10 1246.767 00:45:22 Yes
302 Bynum Family Lofts - TX 0240-AU17-BFL BB H 4 13:25:02.52 1246.738 00:45:23 Yes
303 Zhenyuan Guo - SC 70758-AU17-ARPU BB H 4 13:25:02.66 1246.728 00:45:23 Yes
304 New Orleans Boys - LA 0748-AU17-MET BC H 1 13:25:02.85 1246.715 00:45:23 Yes
305 Y Mtn Loft - TN 0162-AU17-ARPU BB C 3 13:25:04.72 1246.583 00:45:25 Yes
306 Southern Legacy Loft - TX 2263-AU17-JOJO BB H 5 13:25:05.28 1246.543 00:45:25 Yes
307 Sonder Loft - CA 21720-AU17-JEDD BB H 2 13:25:06.58 1246.452 00:45:27 Yes
308 West Wing Syndicate - TX 30469-AU17-JEDD BB H 1 13:25:06.61 1246.450 00:45:27 Yes
309 Ecker/Murphy Syndicate - PA 1499-AU17-GSV DCWF H 5 13:25:07.43 1246.392 00:45:27 Yes
310 Relax & Barger - CA 71999-AU17-MAN BB H 2 13:25:07.85 1246.362 00:45:28 Yes
310 Barry - Shawnie - MI 59034-AU17-ARPU BC C 1 13:25:07.86 1246.362 00:45:28 Yes
312 Flying D Loft - TX 0339-AU17-FLYD BC H 5 13:25:07.94 1246.356 00:45:28 Yes
313 Cbs & Rick - OK 1204-AU17-CBS BC H 1 13:25:08.18 1246.339 00:45:28 Yes
314 Ruiz Loft - TX 29305-MX17-FMC BB H 1 13:25:08.64 1246.307 00:45:29 Yes
315 Racing Pigeon Mall - WA 0707-AU17-RPM BBWF C 2 13:25:08.69 1246.303 00:45:29 Yes
316 Hollywood Honey - CA 0092-AU17-SD BB H 1 13:25:09.11 1246.274 00:45:29 Yes
317 Wind Chaser - MI 1690-AU17-GRM BC H 4 13:25:09.43 1246.251 00:45:30 Yes
318 Bill Traw - TX 1281-AU17-GHC SIL H 1 13:25:12.10 1246.063 00:45:32 Yes
319 Zheng Loft - FL 8891-AU17-ZHEN BC C 4 13:25:19.71 1245.528 00:45:40 Yes
320 Rodriquez & Aubone - TX 1758-AU17-TEJA BC H 3 13:25:22.88 1245.306 00:45:43 Yes
321 Kibria Rpl - TX 0088-AU17-EISN 1197 + 16926 DC C 4 13:25:24.82 1245.169 00:45:45 Yes
322 Holleys Silver Star - TX 0926-AU17-DEN BB H 6 13:25:49.61 1243.430 00:46:10 Yes
323 Elton Dinga - TX 12071-AU17-AA Klaas 1008 x 303 Maxxi BB H 19 13:26:08.82 1242.086 00:46:29 Yes
324 Bill Traw - TX 1275-AU17-GHC BC C 2 13:26:09.93 1242.008 00:46:30 Yes
325 Bynum Family Lofts - TX 0250-AU17-BFL DCSP H 5 13:26:10.35 1241.979 00:46:30 Yes
326 Utaz Boys/ Jones - UT 1060-AU17-SLI CHWF H 5 13:26:12.03 1241.862 00:46:32 Yes
327 Zhenyuan Guo - SC 0690-AU17-GUO BC H 5 13:26:19.53 1241.338 00:46:40 Yes
328 Lazy P Loft - TX 34103-AU17-AA BB C 3 13:26:26.99 1240.817 00:46:47 Yes
329 Bynum Family Lofts - TX 0221-AU17-BFL BB C 6 13:26:44.96 1239.565 00:47:05 Yes
330 Tou Loft - TN 0060-AU17-TOU BB H 1 13:26:45.71 1239.512 00:47:06 Yes
331 K & J Loft - OK 1781-AU17-VK BBWF H 1 13:26:52.60 1239.033 00:47:13 Yes
332 Cbs & Rick - OK 1170-AU17-CBS BC H 2 13:26:56.11 1238.789 00:47:16 Yes
333 Duffy's Loft - TX 9791-AU17-FOYS BC C 1 13:27:41.32 1235.653 00:48:01 Yes
334 C B S & Big Mike - OK 1123-AU17-CBS BB H 2 13:27:50.43 1235.023 00:48:11 Yes
335 English Syndicate - UK 12528-GB17-D BWFP H 2 13:27:54.74 1234.726 00:48:15 Yes
336 Elton Dinga - TX 12116-AU17-AA Kruger 561 x Klaas 1226 BB C 20 13:27:56.07 1234.634 00:48:16 Yes
337 Southern Legacy Loft - TX 2245-AU17-JOJO BC H 6 13:27:56.11 1234.631 00:48:16 Yes
338 Elton Dinga - TX 12086-AU17-AA Vercammen x Jansen OLYMPI BB H 21 13:27:57.32 1234.547 00:48:17 Yes
339 English Syndicate - UK 2925-AU17-TEX BB H 3 13:27:59.83 1234.374 00:48:20 Yes
340 480 Volt Loft - TX 34100-AU17-AA DWFP H 2 13:28:00.39 1234.335 00:48:20 Yes
341 Uncle Dirty's Loft - TX 0958-AU17-OMAH BB H 3 13:28:01.36 1234.269 00:48:21 Yes
342 Black Magic Loft - TX 0330-AU17-HCF BB C 1 13:28:22.19 1232.832 00:48:42 Yes
343 Jokers Wild - CA 0342-AU17-JOKE BB H 2 13:28:32.82 1232.101 00:48:53 Yes
344 R Shaw - TX 0963-AU17-OMHA BB H 1 13:28:56.83 1230.452 00:49:17 Yes
345 Tex-Mex Loft - TX 0640-AU17-NSL The Russian BB C 3 13:28:57.89 1230.379 00:49:18 Yes
346 Elton Dinga - TX 12110-AU17-AA Gust Jansen OLYMPIADE BC H 22 13:28:58.30 1230.351 00:49:18 Yes
347 Hugo Family Loft - IL 93093-IF17-E BB H 2 13:28:58.68 1230.325 00:49:19 Yes
348 Milestone Loft - CA 0189-AU17-SD GRIZ H 3 13:28:58.80 1230.316 00:49:19 Yes
349 Wartick Loft - KS 35892-AU17-AA BB C 2 13:28:59.32 1230.281 00:49:19 Yes
350 Bionic Loft - LA 0633-AU17-CAJN BC H 4 13:28:59.74 1230.252 00:49:20 Yes
351 Kanetzky & Vazquez Loft - TX 2664-AU17-TEX BC H 3 13:29:00.86 1230.175 00:49:21 Yes
352 Mlb Team - TX 2961-AU17-TEX BCWF H 3 13:29:00.97 1230.168 00:49:21 Yes
353 Sky King Loft - TX 16905-AU17-QS BC H 1 13:29:01.25 1230.148 00:49:21 Yes
354 Liu Loft - NC 8885-AU17-LIU BB H 4 13:29:01.28 1230.146 00:49:21 Yes
355 Sky King Loft - TX 16906-AU17-QS BC H 2 13:29:01.57 1230.126 00:49:22 Yes
356 Sky Dancer Loft - TX 0343-AU17-WWC Lez Tango II BBWF C 1 13:29:01.61 1230.124 00:49:22 Yes
357 Cajun Express Loft - LA 0834-AU17-CEL BC H 2 13:29:01.75 1230.114 00:49:22 Yes
358 Anderson, Aycock & Louie - AZ 1339-AU17-DTCH BBWF H 1 13:29:01.93 1230.102 00:49:22 Yes
359 ! ! ! S P E E D S - R A C E R S ! ! ! - FL 3892-AU17-SCHE EL VALDES BB C 1 13:29:02.63 1230.054 00:49:23 Yes
360 Dream Team - VT 0788-AU17-JCZL GRIZ H 5 13:29:03.49 1229.995 00:49:24 Yes
361 Racine - WI 0591-AU17-RAC BB H 1 13:29:03.82 1229.972 00:49:24 Yes
362 Bieche Lofts - CA 7387-AU17-BCHE BC H 2 13:29:05.25 1229.874 00:49:25 Yes
363 Lechuga Loft - TX 0007-MX17-LECH RC C 2 13:29:07.50 1229.720 00:49:28 Yes
364 Smith & Smith 1 - TX 17060-AU17-ACES BWFP C 4 13:29:07.93 1229.691 00:49:28 Yes
365 Bill Kluge - TX 1705-AU17-COLD BB H 2 13:29:08.50 1229.652 00:49:29 Yes
366 Bynum Family Lofts - TX 0230-AU17-BFL BBSP H 7 13:29:08.80 1229.631 00:49:29 Yes
367 Wolf Den & Family Loft - IL 0044-AU17-WOLF BBPD H 4 13:29:09.88 1229.557 00:49:30 Yes
368 Gold Star Loft - CA 1293-AU17-STON RC C 2 13:29:10.27 1229.530 00:49:30 Yes
369 The Firm - TX 1186-IF17-KOLV Falcon Of Philadelphia BB H 2 13:29:15.22 1229.191 00:49:35 Yes
370 Baden Feed - ON 7141-IF17-S BC H 2 13:29:15.78 1229.153 00:49:36 Yes
371 Scorpion Loft - TX 1283-AU17-DAL BBSP H 5 13:29:20.24 1228.848 00:49:40 Yes
372 Tex-Mex Loft - TX 0608-AU17-NSL Spook BLK C 4 13:29:22.35 1228.703 00:49:42 Yes
373 Apollo Loft 2 - IL 2982-AU17-APLO BCWF H 1 13:29:22.86 1228.668 00:49:43 Yes
374 Utaz Team - UT 0835-AU17-PSC BB H 2 13:29:26.68 1228.407 00:49:47 Yes
375 Richard Callahan - MO 1683-AU17-AA BB H 5 13:30:17.68 1224.930 00:50:38 Yes
376 Flying D Diva - TX 0197-AU17-FLYD DC H 2 13:30:46.60 1222.967 00:51:07 Yes
377 Two Cousins - LA 3075-AU17-BYOU DC H 1 13:30:50.00 1222.737 00:51:10 Yes
378 Tex-Mex Loft - TX 0658-AU17-NSL F G G E DGRZ C 5 13:30:51.19 1222.656 00:51:11 Yes
379 Casale/Miner - CA 1712-AU17-VG BCPD H 2 13:30:51.52 1222.634 00:51:12 Yes
380 Tony Alvarado - TX 0066-AU17-WETT BWFP H 2 13:30:51.93 1222.606 00:51:12 Yes
381 French Camp Connection - CA 71981-AU17-MAN BB C 3 13:30:53.18 1222.521 00:51:13 Yes
382 Baptista - IL 3084-AU17-FOYS RC C 3 13:30:54.46 1222.435 00:51:15 Yes
383 Wessel Family Lofts - CA 1455-AU17-ARC BBPD H 3 13:31:01.13 1221.983 00:51:21 Yes
384 Lee Family Loft - MS 2935-AU17-LEE MLY C 1 13:31:04.44 1221.759 00:51:25 Yes
385 Cajun Express Loft - LA 10962-AU17-AA BCPD H 3 13:31:04.74 1221.739 00:51:25 Yes
386 Hillbilly Loft - TX 17656-AU17-AA BB H 4 13:31:19.80 1220.721 00:51:40 Yes
387 Cuba Loft 2 - TX 36170-AU17-ARPU SPL C 2 13:31:22.93 1220.510 00:51:43 Yes
388 Hillbilly Loft - TX 17644-AU17-AA BWFP H 5 13:31:23.49 1220.472 00:51:44 Yes
389 Jokers Wild - CA 0334-AU17-JOKE BB C 3 13:31:25.50 1220.337 00:51:46 Yes
390 Abel Loft - CA 7557-AU17-HAN BBWF C 2 13:31:30.14 1220.024 00:51:50 Yes
391 Gossett & Son - TX 1016-AU17-WF BB H 1 13:31:35.71 1219.648 00:51:56 Yes
392 Rodriquez & Aubone - TX 1768-AU17-TEJA BC C 4 13:31:38.28 1219.475 00:51:58 Yes
393 Elton Dinga - TX 12066-AU17-AA Hebberecht 74 x Diels 390 BC H 23 13:32:01.19 1217.933 00:52:21 Yes
394 Quest Syndicate/Any Given Day Loft - TX 16610-AU17-QS BB H 4 13:32:04.82 1217.689 00:52:25 Yes
395 Armando & Rameriz Loft - TX 0171-AU17-DAL BBSP H 1 13:32:06.24 1217.594 00:52:26 Yes
396 Racine - WI 0595-AU17-RAC BLK H 2 13:32:06.27 1217.592 00:52:26 Yes
397 Zhenyuan Guo - SC 0682-AU17-GUO BC H 6 13:32:06.50 1217.576 00:52:27 Yes
398 Wartick Loft - KS 0247-AU17-AIR DC H 3 13:32:07.43 1217.514 00:52:27 Yes
399 Los Banditos - CA 2475-AU17-LB BNC H 3 13:32:07.82 1217.488 00:52:28 Yes
400 Gossett & Son - TX 1021-AU17-WF BC H 2 13:32:08.07 1217.471 00:52:28 Yes

There are 984 bird records

Note: These Race Results are unofficial and subject to change until verified by the Race Committee and declared final.